Wind_Speed
3 3 3 4 5 5 5 5 5 5 6 6 6 7 7 7 7 7 7 8 8 8 8 8 8 8 8 8 9 9 9 9 10 10 9 9 9 9 9 9 9 9 9
3 3 4 4 4 4 5 5 5 5 5 6 6 6 6 6 7 7 8 8 8 8 8 9 9 10 10 9 10 10 10 9 10 10 10 9 9 9 9 9 9 10 11
3 3 4 4 4 4 5 5 5 5 5 6 5 6 6 6 7 8 8 9 8 9 9 9 10 10 10 10 10 10 10 11 11 11 11 11 10 10 10 11 11 11 12
4 4 4 5 5 5 5 5 5 5 6 6 6 6 6 6 6 7 7 8 9 9 9 10 10 10 10 10 10 10 11 11 11 11 11 11 11 10 10 11 11 11 12
5 5 4 4 5 5 4 5 6 6 5 5 5 6 6 6 6 7 7 8 8 8 9 10 10 9 10 10 10 10 10 10 11 10 10 10 10 10 10 10 11 12 12
4 4 4 5 4 4 5 4 5 5 5 5 5 5 6 6 7 8 8 8 8 8 9 10 10 9 9 10 10 10 10 10 10 10 9 10 9 10 10 11 11 12 13
5 5 5 5 5 4 4 4 4 5 5 6 5 5 6 6 7 7 8 8 8 9 9 9 9 10 10 9 9 10 10 11 11 10 10 10 10 10 11 12 12 12 13
5 5 5 4 5 4 4 5 5 6 7 7 6 7 7 7 7 7 8 8 8 8 9 10 9 10 10 10 9 9 10 10 11 11 11 11 11 11 11 11 12 12 13
5 5 5 5 5 6 6 6 7 7 8 8 8 8 9 8 8 8 8 8 8 8 9 10 9 9 9 9 10 10 10 10 11 12 12 11 12 12 12 12 13 13 14
5 5 5 6 6 6 7 8 9 9 9 10 9 9 10 10 9 9 9 8 8 9 9 8 8 8 9 9 9 10 10 12 12 12 12 12 13 13 13 14 14 15 15
5 6 7 7 7 8 9 10 10 9 10 11 10 10 11 10 10 10 9 8 8 8 9 9 9 9 8 9 10 11 11 12 13 13 12 12 12 12 13 13 14 15 14
7 8 8 9 9 10 10 11 11 10 11 11 11 11 11 11 11 10 9 9 8 8 9 9 10 10 10 10 11 11 12 13 12 12 12 12 12 12 13 14 14 14 13
10 9 9 10 11 11 10 11 11 11 12 12 12 12 12 11 12 11 10 10 10 10 10 10 11 11 12 12 13 13 13 14 14 14 13 13 13 13 14 14 14 14 14
11 11 11 11 12 12 12 11 12 12 13 13 13 13 13 12 12 12 12 12 12 12 12 13 13 13 13 14 14 14 14 14 14 14 13 13 13 13 14 14 15 15 15
12 12 12 12 13 13 13 13 14 14 14 15 15 15 14 13 13 13 14 14 13 14 14 15 15 14 14 14 14 14 14 15 14 14 13 13 13 13 14 15 15 15 16
12 13 13 14 14 14 15 15 15 15 16 16 16 16 15 15 15 15 15 16 16 16 16 16 16 15 15 15 15 15 15 15 14 14 14 14 14 15 15 15 15 16 17
14 15 15 15 16 16 15 16 16 16 16 16 16 16 16 16 16 16 16 16 16 16 16 16 16 17 16 16 16 16 16 16 15 16 16 16 17 17 17 17 17 18 18
17 17 17 17 17 17 17 17 17 17 18 17 17 17 17 17 17 17 17 16 17 17 17 16 17 17 17 17 17 17 17 17 17 18 18 18 19 18 19 19 19 19 19
18 18 18 18 18 19 19 19 20 20 20 20 20 20 19 19 19 19 18 18 19 19 19 19 19 20 19 20 20 19 19 19 19 20 20 20 21 20 20 20 20 20 20
19 18 18 19 19 20 21 21 21 21 22 22 22 22 21 20 20 20 20 20 21 21 21 21 20 21 22 22 22 21 21 20 21 21 22 23 23 22 22 22 22 22 22
20 20 20 21 22 22 22 22 23 23 23 23 23 22 22 21 21 21 21 22 22 22 22 22 21 22 23 24 23 24 23 23 23 23 23 24 24 24 24 23 24 24 24
21 22 22 23 23 23 23 24 23 23 23 23 22 22 23 23 22 22 22 23 23 23 23 23 22 23 23 24 25 25 25 25 25 24 25 25 25 24 25 25 25 24 25
23 23 24 24 24 24 25 25 25 24 23 23 23 23 23 24 24 24 24 24 24 24 24 24 24 24 24 25 25 26 26 26 26 26 26 26 26 25 25 25 25 25 26
25 25 25 25 25 25 25 25 25 25 25 25 25 25 25 25 25 25 26 25 25 24 24 25 25 25 25 26 26 26 27 27 27 27 28 28 28 27 28 27 26 26 26
27 26 26 26 26 26 26 26 26 26 26 26 26 26 26 26 27 26 26 26 26 26 26 25 25 25 26 27 28 28 28 27 27 28 28 28 28 28 28 28 28 27 27
28 28 28 28 28 28 28 27 27 27 27 27 27 27 27 27 27 27 27 27 27 27 27 27 27 27 27 28 29 29 28 28 27 28 28 28 28 28 28 29 29 29 28
Wind_Direction
341 334 315 305 297 295 300 302 290 278 278 282 278 270 265 261 258 258 258 259 261 260 263 265 258 262 266 269 273 277 280 276 274 272 269 270 270 265 259 254 255 250 247
334 331 329 316 302 290 289 292 284 279 280 279 272 267 267 265 255 253 256 258 262 261 263 264 270 271 268 272 275 276 274 274 272 267 265 266 266 261 254 255 252 251 248
341 338 333 323 308 296 288 285 279 279 279 278 272 268 269 268 264 261 262 263 263 264 267 269 270 273 270 272 273 272 269 268 268 267 265 263 263 255 251 255 256 254 251
340 333 323 316 311 306 293 282 277 277 279 282 279 275 269 271 277 274 270 266 266 266 269 270 270 267 269 272 271 272 269 268 266 267 264 262 263 256 255 255 257 256 255
332 331 326 319 310 301 295 289 284 282 278 283 285 275 273 274 277 277 272 267 267 263 265 266 267 267 268 271 270 270 270 271 271 269 268 264 260 256 257 259 258 259 258
328 324 324 325 321 311 311 302 290 288 284 281 281 278 281 280 279 283 279 271 270 268 267 265 265 274 276 272 273 273 270 272 271 272 270 265 259 258 259 261 261 261 259
338 329 324 331 327 323 329 316 296 296 295 288 283 287 290 295 293 290 284 276 272 269 268 269 270 273 276 276 273 271 269 268 266 267 266 262 257 259 260 260 261 264 263
332 331 323 320 324 329 332 321 306 300 292 289 288 292 295 294 293 293 289 283 276 265 259 266 272 274 278 279 276 272 269 267 264 263 263 260 257 259 261 259 261 263 265
324 318 317 311 316 320 313 306 303 297 294 293 288 287 290 292 293 294 293 287 283 272 263 264 268 275 278 275 272 272 271 271 269 264 263 261 260 263 261 262 264 262 263
316 313 306 300 302 309 309 305 301 299 296 294 289 286 286 287 287 286 286 286 283 276 270 268 274 273 274 275 272 272 269 268 269 267 266 262 263 263 265 266 267 265 262
308 306 305 307 302 305 304 303 303 301 298 298 295 289 284 283 285 284 282 283 283 280 277 274 277 277 279 276 276 275 272 271 270 269 266 263 263 264 265 267 269 268 266
298 300 301 304 301 300 299 297 296 295 299 302 301 297 292 285 285 287 287 285 282 280 279 276 276 280 283 280 280 279 276 275 272 273 268 266 266 265 266 268 268 268 268
294 298 299 299 301 300 296 300 300 300 299 300 300 296 293 285 281 281 281 278 275 276 276 275 276 279 281 280 281 280 276 275 274 273 267 267 267 264 266 265 268 268 268
293 295 297 298 299 295 293 296 297 297 298 297 296 296 294 284 276 277 279 275 272 273 274 276 277 278 278 279 280 278 276 277 277 275 269 270 269 267 268 268 267 269 269
292 295 297 296 294 290 289 290 292 294 296 295 294 293 292 287 278 276 277 277 274 273 272 273 273 275 276 277 277 276 274 275 276 273 271 272 272 271 272 272 271 271 271
296 297 296 295 292 289 290 291 290 289 291 291 290 288 286 285 282 279 276 274 273 272 270 270 271 271 272 274 273 271 271 271 270 272 274 275 275 273 271 270 271 272 272
296 297 298 297 293 292 292 293 293 293 294 292 289 287 287 285 284 281 279 276 271 269 268 267 269 269 269 271 272 272 271 270 270 270 273 275 275 274 271 269 270 272 273
293 292 291 294 295 295 293 291 290 291 292 291 289 286 286 283 281 281 279 280 278 274 271 269 269 269 271 272 273 274 272 269 269 270 273 275 276 276 273 270 271 272 272
293 291 292 293 293 292 291 288 285 286 287 287 285 283 281 279 277 278 278 277 278 276 274 271 271 272 271 270 271 272 270 270 270 271 272 272 274 275 274 271 271 272 273
292 291 291 292 291 290 290 289 285 284 285 285 284 284 282 278 276 276 276 275 277 276 275 274 273 272 271 272 271 270 270 271 272 273 273 273 273 273 273 271 271 271 272
291 291 291 290 290 290 289 289 286 285 286 285 283 284 281 280 278 277 276 276 275 276 277 276 275 273 273 272 272 270 270 271 272 273 274 273 272 271 270 270 271 272 273
292 292 291 290 290 290 290 288 288 288 286 284 283 281 279 278 279 279 279 277 276 277 277 277 277 276 276 274 273 271 271 272 272 272 273 273 271 270 269 271 272 272 273
291 290 289 290 290 290 289 288 286 287 286 284 282 280 280 279 278 278 278 279 277 277 277 277 278 279 277 276 275 274 274 274 273 272 272 272 270 269 269 271 272 273 273
289 289 288 288 288 288 287 286 285 286 284 283 282 281 280 281 279 278 279 279 279 278 278 278 277 277 277 276 275 276 276 275 274 273 273 272 271 271 270 270 271 272 272
288 287 287 287 287 287 287 284 283 283 282 282 281 281 280 280 280 279 279 279 279 278 279 278 279 277 276 277 277 277 277 276 274 273 273 272 271 271 271 271 270 271 271
286 286 286 287 287 287 286 282 281 281 282 282 281 279 280 279 280 279 279 279 279 279 278 277 277 277 276 277 277 277 276 275 274 273 273 272 271 271 271 271 271 271 271
Height
5887 5886 5886 5885 5884 5884 5883 5882 5881 5881 5881 5880 5880 5880 5880 5879 5879 5878 5878 5878 5877 5877 5876 5876 5876 5876 5875 5875 5875 5874 5874 5874 5873 5873 5873 5872 5872 5872 5872 5872 5872 5872 5873
5886 5885 5884 5884 5883 5882 5881 5881 5880 5879 5879 5878 5878 5878 5878 5877 5877 5876 5876 5875 5874 5874 5874 5873 5873 5873 5873 5873 5872 5872 5872 5871 5870 5870 5870 5870 5869 5869 5870 5870 5870 5870 5871
5885 5884 5883 5882 5881 5880 5880 5879 5878 5878 5877 5877 5876 5876 5875 5875 5874 5874 5873 5872 5872 5872 5871 5871 5871 5870 5870 5870 5869 5869 5869 5869 5868 5868 5867 5867 5867 5866 5867 5868 5868 5868 5868
5884 5883 5882 5881 5880 5879 5878 5877 5877 5876 5875 5875 5874 5873 5873 5872 5871 5870 5870 5869 5869 5869 5869 5868 5868 5867 5867 5867 5867 5866 5866 5865 5865 5865 5865 5865 5864 5864 5864 5865 5865 5865 5865
5882 5882 5880 5879 5878 5877 5876 5876 5875 5874 5873 5873 5872 5871 5871 5870 5869 5868 5866 5866 5866 5866 5866 5865 5865 5864 5864 5864 5864 5863 5863 5863 5862 5862 5862 5862 5862 5862 5862 5862 5862 5863 5863
5881 5880 5879 5878 5877 5876 5875 5874 5873 5872 5872 5871 5870 5870 5869 5867 5866 5865 5864 5864 5863 5863 5863 5863 5863 5862 5862 5862 5861 5861 5861 5860 5860 5860 5859 5859 5859 5859 5859 5859 5859 5860 5860
5879 5878 5877 5876 5875 5874 5874 5873 5872 5871 5870 5869 5869 5868 5866 5865 5864 5862 5861 5861 5860 5860 5860 5860 5860 5860 5860 5859 5859 5858 5858 5858 5857 5857 5857 5857 5857 5857 5856 5857 5857 5857 5857
5878 5877 5876 5875 5874 5873 5872 5872 5871 5869 5868 5867 5867 5866 5865 5864 5861 5860 5858 5857 5857 5857 5857 5858 5858 5857 5857 5857 5856 5856 5856 5855 5855 5854 5854 5854 5854 5854 5854 5854 5854 5854 5854
5877 5876 5875 5874 5873 5872 5871 5870 5869 5868 5867 5865 5864 5864 5863 5861 5860 5858 5856 5855 5854 5854 5855 5855 5855 5855 5854 5854 5853 5853 5853 5852 5852 5851 5851 5851 5851 5851 5851 5850 5850 5850 5850
5875 5874 5873 5872 5871 5870 5869 5868 5867 5865 5864 5863 5862 5861 5860 5859 5858 5856 5855 5853 5853 5852 5853 5852 5852 5852 5852 5851 5851 5850 5850 5849 5849 5848 5848 5848 5848 5847 5847 5847 5846 5846 5845
5873 5872 5871 5870 5869 5868 5866 5865 5864 5863 5861 5860 5859 5858 5857 5856 5855 5854 5853 5852 5851 5851 5850 5850 5850 5849 5849 5848 5848 5847 5846 5846 5846 5845 5844 5844 5844 5844 5843 5843 5842 5842 5841
5871 5870 5869 5868 5866 5865 5864 5862 5861 5859 5858 5857 5856 5855 5854 5853 5852 5851 5850 5849 5849 5848 5848 5847 5847 5846 5846 5845 5845 5844 5843 5842 5842 5842 5841 5841 5841 5840 5840 5839 5838 5838 5837
5869 5867 5866 5865 5864 5862 5860 5858 5857 5856 5855 5854 5853 5852 5851 5850 5849 5848 5847 5846 5846 5845 5845 5844 5844 5843 5843 5842 5841 5840 5839 5839 5838 5838 5837 5837 5837 5836 5836 5835 5835 5834 5833
5865 5864 5863 5862 5861 5859 5858 5856 5855 5853 5852 5851 5850 5848 5847 5846 5845 5845 5844 5843 5843 5842 5842 5841 5840 5840 5839 5838 5837 5836 5835 5835 5834 5834 5833 5833 5832 5832 5832 5831 5831 5830 5829
5862 5861 5859 5858 5857 5856 5854 5853 5851 5850 5848 5847 5846 5845 5843 5842 5841 5840 5840 5839 5839 5839 5838 5837 5836 5835 5834 5833 5833 5832 5831 5831 5830 5829 5829 5829 5828 5828 5828 5827 5826 5826 5825
5858 5857 5856 5854 5853 5851 5850 5849 5847 5846 5845 5843 5842 5841 5839 5838 5837 5836 5835 5835 5834 5834 5833 5832 5831 5831 5830 5829 5828 5827 5826 5826 5825 5825 5825 5824 5824 5823 5823 5822 5822 5821 5821
5854 5853 5851 5850 5849 5847 5846 5844 5843 5842 5840 5839 5838 5836 5835 5834 5832 5831 5830 5830 5829 5828 5828 5827 5826 5825 5825 5824 5823 5822 5821 5821 5821 5821 5820 5820 5819 5818 5818 5817 5816 5816 5816
5850 5848 5847 5845 5844 5843 5841 5840 5838 5837 5836 5834 5833 5831 5830 5829 5828 5826 5825 5824 5823 5823 5822 5822 5821 5820 5820 5819 5818 5817 5816 5816 5815 5815 5814 5814 5813 5812 5812 5811 5811 5811 5810
5845 5843 5842 5840 5839 5838 5836 5835 5833 5832 5830 5829 5827 5825 5824 5823 5822 5821 5820 5819 5818 5817 5816 5816 5816 5815 5814 5813 5812 5812 5811 5810 5809 5809 5808 5807 5807 5806 5806 5805 5805 5804 5804
5840 5838 5837 5835 5833 5832 5830 5829 5827 5825 5824 5822 5820 5819 5818 5816 5815 5814 5814 5813 5812 5811 5810 5810 5809 5808 5808 5807 5806 5805 5805 5804 5803 5803 5802 5801 5800 5799 5799 5798 5798 5798 5797
5834 5832 5831 5829 5827 5826 5824 5822 5820 5819 5817 5815 5813 5812 5811 5810 5808 5807 5807 5806 5805 5804 5803 5803 5802 5801 5801 5800 5799 5798 5798 5797 5797 5796 5795 5794 5793 5792 5792 5791 5791 5790 5790
5828 5826 5825 5823 5821 5819 5817 5815 5813 5812 5810 5808 5806 5805 5804 5803 5802 5801 5799 5798 5798 5797 5796 5795 5794 5794 5793 5792 5791 5791 5790 5790 5789 5789 5788 5787 5786 5785 5785 5784 5783 5783 5782
5822 5820 5817 5816 5814 5811 5809 5808 5806 5804 5803 5801 5800 5798 5797 5796 5795 5794 5792 5791 5790 5789 5788 5788 5787 5786 5786 5785 5784 5783 5782 5781 5781 5780 5780 5779 5778 5778 5777 5777 5776 5775 5774
5814 5812 5810 5808 5806 5804 5802 5800 5798 5796 5795 5793 5792 5791 5790 5788 5787 5786 5785 5783 5782 5781 5781 5780 5779 5778 5778 5777 5776 5775 5774 5773 5772 5772 5771 5770 5769 5769 5769 5768 5768 5767 5766
5806 5804 5802 5800 5798 5796 5794 5791 5790 5788 5786 5785 5783 5782 5781 5780 5779 5778 5777 5775 5774 5773 5773 5772 5771 5770 5769 5768 5767 5766 5765 5764 5764 5763 5762 5762 5761 5760 5760 5759 5759 5758 5758
5798 5796 5794 5792 5789 5787 5785 5782 5781 5779 5778 5776 5775 5774 5773 5772 5770 5769 5768 5767 5766 5765 5764 5763 5762 5761 5761 5760 5758 5757 5756 5755 5754 5754 5753 5753 5752 5752 5751 5751 5750 5749 5748